Zurück zum Katalog

YAOGAN-36 03A

AktivMilitärVLEO
NORAD 54372·PAYLOAD·🇨🇳 China

Gestartet Nov 27, 2022 von Xichang Satellite Launch Center

Loading…

Nächste Überflüge (nächste 24 Stunden)

TLE

AktuellSource: Space-Track

Epoche: Sep 14, 2026, 22:45 UTC

1 54372U 22160A   26257.94799845  .00014085  00000-0  37695-3 0  9990
2 54372  34.9996 107.2062 0003043  14.6616 345.4191 15.37175349212024

Verfolge YAOGAN-36 03A in Echtzeit mit AllMySat

Download on the App Store